Powrót do katalogu

CZ-3C DEB

AktywnyGTO
NORAD 48550·DEBRIS·🇨🇳 China

Wystrzelony Feb 24, 2012 z Xichang Satellite Launch Center

Loading…

TLE

Starzejące sięSource: Space-Track

Epoka: Sep 14, 2026, 10:16 UTC

1 48550U 12008AV  26257.42845123 -.00000097  00000-0  00000-0 0  9991
2 48550  20.0408 147.3800 6964890 340.9922   2.6408  2.24685511 91826

Śledź CZ-3C DEB w czasie rzeczywistym z AllMySat

Download on the App Store